W7BTL Weather Reports


Display with metric or nautical units.
time (UTC)temp
F
wind
direction
speed
MPH
gust
MPH
rain 1hr
in
rain 24hr
in
rain mn
in
humidity
%
barometer
mb
20260507231333 82 203 0.0 1.0 0.00 0.00 0.00 44 1013.6
20260507230829 83 203 1.0 2.0 0.00 0.00 0.00 43 1013.4
20260507230327 85 218 2.0 2.0 0.00 0.00 0.00 41 1013.6
20260507225827 86 166 0.0 0.0 0.00 0.00 0.00 39 1013.6
20260507225323 88 166 1.0 1.0 0.00 0.00 0.00 38 1013.5
20260507224820 90 196 1.0 1.0 0.00 0.00 0.00 35 1013.7
20260507224317 90 186 1.0 1.0 0.00 0.00 0.00 35 1013.8
20260507223813 92 209 1.0 1.0 0.00 0.00 0.00 34 1013.6
20260507223309 92 131 0.0 0.0 0.00 0.00 0.00 34 1013.7
20260507222806 93 174 1.0 1.0 0.00 0.00 0.00 32 1013.9
20260507222305 94 197 1.0 1.0 0.00 0.00 0.00 32 1013.9
20260507221800 94 128 1.0 1.0 0.00 0.00 0.00 31 1013.9
20260507221256 92 193 0.0 0.0 0.00 0.00 0.00 33 1014.1
20260507220752 93 236 2.0 2.0 0.00 0.00 0.00 33 1013.9
20260507220251 94 256 1.0 1.0 0.00 0.00 0.00 32 1014.1
20260507215746 92 171 0.0 0.0 0.00 0.00 0.00 33 1014.1
20260507215244 92 197 2.0 2.0 0.00 0.00 0.00 33 1014.1
20260507214741 91 177 0.0 0.0 0.00 0.00 0.00 34 1014.1
20260507214238 91 204 1.0 1.0 0.00 0.00 0.00 34 1014.1
20260507213733 91 171 1.0 1.0 0.00 0.00 0.00 34 1014.4
20260507213231 90 218 1.0 1.0 0.00 0.00 0.00 35 1014.1
20260507212727 92 262 1.0 1.0 0.00 0.00 0.00 34 1014.3
20260507212223 91 180 1.0 1.0 0.00 0.00 0.00 34 1014.3
20260507211720 91 219 2.0 2.0 0.00 0.00 0.00 35 1014.3
20260507211216 88 237 1.0 1.0 0.00 0.00 0.00 37 1014.5
20260507210714 88 210 1.0 1.0 0.00 0.00 0.00 37 1014.4
20260507210210 87 167 2.0 2.0 0.00 0.00 0.00 37 1014.5
20260507205707 88 290 1.0 1.0 0.00 0.00 0.00 37 1014.6
20260507205203 87 255 2.0 2.0 0.00 0.00 0.00 37 1014.5
20260507204659 87 209 1.0 2.0 0.00 0.00 0.00 38 1014.8
20260507204158 87 251 1.0 1.0 0.00 0.00 0.00 37 1014.7
20260507203655 85 231 1.0 1.0 0.00 0.00 0.00 39 1014.7
20260507203152 85 294 2.0 2.0 0.00 0.00 0.00 40 1014.7
20260507202648 85 336 2.0 2.0 0.00 0.00 0.00 40 1014.7
20260507202144 85 243 1.0 2.0 0.00 0.00 0.00 40 1014.8
20260507201639 86 277 2.0 2.0 0.00 0.00 0.00 40 1014.7
20260507201137 85 226 1.0 1.0 0.00 0.00 0.00 40 1015.0
20260507200632 85 259 2.0 2.0 0.00 0.00 0.00 40 1015.0
20260507200129 86 118 1.0 1.0 0.00 0.00 0.00 39 1015.0
20260507195626 86 216 1.0 1.0 0.00 0.00 0.00 39 1015.0
20260507195123 86 258 2.0 2.0 0.00 0.00 0.00 38 1015.1
20260507194620 88 285 1.0 2.0 0.00 0.00 0.00 38 1015.2
20260507194115 88 243 2.0 2.0 0.00 0.00 0.00 35 1015.2
20260507193612 89 235 1.0 1.0 0.00 0.00 0.00 36 1015.1
20260507193109 88 206 1.0 1.0 0.00 0.00 0.00 36 1015.2
20260507192605 89 232 0.0 0.0 0.00 0.00 0.00 35 1015.3
20260507192103 88 12 0.0 0.0 0.00 0.00 0.00 36 1015.4
20260507191558 86 98 1.0 1.0 0.00 0.00 0.00 38 1015.4
20260507191055 86 162 1.0 1.0 0.00 0.00 0.00 38 1015.4
20260507190552 85 189 1.0 1.0 0.00 0.00 0.00 39 1015.4
20260507190051 86 260 1.0 1.0 0.00 0.00 0.00 39 1015.6
20260507185549 87 272 1.0 1.0 0.00 0.00 0.00 37 1015.8
20260507185045 86 236 1.0 1.0 0.00 0.00 0.00 38 1015.6
20260507184544 87 245 2.0 2.0 0.00 0.00 0.00 38 1015.7
20260507184041 85 242 0.0 0.0 0.00 0.00 0.00 38 1015.6
20260507183537 85 236 1.0 1.0 0.00 0.00 0.00 39 1015.8
20260507183034 88 223 1.0 2.0 0.00 0.00 0.00 36 1015.8
20260507182530 90 196 1.0 1.0 0.00 0.00 0.00 34 1015.9
20260507182026 90 209 1.0 1.0 0.00 0.00 0.00 34 1015.8
20260507181524 89 199 0.0 0.0 0.00 0.00 0.00 35 1015.8
20260507181019 87 221 0.0 0.0 0.00 0.00 0.00 36 1015.8
20260507180516 90 186 0.0 0.0 0.00 0.00 0.00 33 1015.9
20260507180013 90 181 0.0 1.0 0.00 0.00 0.00 34 1016.0
20260507175509 89 181 0.0 0.0 0.00 0.00 0.00 34 1016.0
20260507175007 88 183 0.0 0.0 0.00 0.00 0.00 35 1015.9
20260507174504 88 181 0.0 0.0 0.00 0.00 0.00 35 1016.1
20260507174002 86 199 0.0 0.0 0.00 0.00 0.00 37 1016.2
20260507173458 87 200 1.0 1.0 0.00 0.00 0.00 36 1016.2
20260507172955 87 179 0.0 0.0 0.00 0.00 0.00 36 1016.2
20260507172451 85 206 0.0 0.0 0.00 0.00 0.00 37 1016.1
20260507171948 86 198 0.0 0.0 0.00 0.00 0.00 37 1016.1
20260507171444 87 198 0.0 0.0 0.00 0.00 0.00 36 1016.1
20260507170941 89 196 1.0 1.0 0.00 0.00 0.00 35 1016.1
20260507170438 87 209 1.0 1.0 0.00 0.00 0.00 37 1016.1
20260507165934 84 219 0.0 0.0 0.00 0.00 0.00 40 1016.0
20260507165430 82 222 0.0 0.0 0.00 0.00 0.00 43 1016.4
20260507164926 82 221 0.0 0.0 0.00 0.00 0.00 43 1016.2
20260507164423 85 219 0.0 0.0 0.00 0.00 0.00 41 1016.3
20260507163920 86 143 0.0 0.0 0.00 0.00 0.00 39 1016.3
20260507163418 88 165 1.0 1.0 0.00 0.00 0.00 36 1016.3
20260507162914 86 164 0.0 0.0 0.00 0.00 0.00 37 1016.3
20260507162410 85 165 0.0 0.0 0.00 0.00 0.00 38 1016.3
20260507161908 84 173 0.0 0.0 0.00 0.00 0.00 41 1016.6
20260507161403 86 172 0.0 0.0 0.00 0.00 0.00 38 1016.5
20260507160900 85 172 0.0 0.0 0.00 0.00 0.00 39 1016.7
20260507160356 83 172 0.0 0.0 0.00 0.00 0.00 41 1016.5
20260507155852 83 173 0.0 0.0 0.00 0.00 0.00 43 1016.6
20260507155348 84 172 0.0 0.0 0.00 0.00 0.00 41 1016.4
20260507154845 83 172 0.0 0.0 0.00 0.00 0.00 42 1016.7
20260507154342 83 172 0.0 0.0 0.00 0.00 0.00 43 1016.7
20260507153839 81 172 0.0 0.0 0.00 0.00 0.00 44 1016.5
20260507153536 79 172 0.0 0.0 0.00 0.00 0.00 47 1016.7
20260507153336 79 172 0.0 0.0 0.00 0.00 0.00 47 1016.7
20260507153120 78 172 0.0 0.0 0.00 0.00 0.00 49 1016.3
20260507152849 76 172 0.0 0.0 0.00 0.00 0.00 52 1016.4
20260507152832 78 172 0.0 0.0 0.00 0.00 0.00 49 1016.3
20260507152328 76 172 0.0 0.0 0.00 0.00 0.00 52 1016.4
20260507152010 73 172 0.0 0.0 0.00 0.00 0.00 57 1016.6
20260507151825 73 172 0.0 0.0 0.00 0.00 0.00 57 1016.6
20260507151321 71 173 0.0 0.0 0.00 0.00 0.00 61 1016.8
20260507150818 70 176 0.0 0.0 0.00 0.00 0.00 64 1016.7
20260507150315 68 176 0.0 0.0 0.00 0.00 0.00 67 1016.7
20260507145811 67 176 0.0 0.0 0.00 0.00 0.00 71 1016.8
20260507145308 66 176 0.0 0.0 0.00 0.00 0.00 73 1016.6
20260507144805 65 176 0.0 0.0 0.00 0.00 0.00 75 1016.6
20260507144302 64 176 0.0 0.0 0.00 0.00 0.00 76 1016.5
20260507143758 63 176 0.0 0.0 0.00 0.00 0.00 81 1016.5
20260507143256 62 176 0.0 0.0 0.00 0.00 0.00 83 1016.5
20260507142751 61 176 0.0 0.0 0.00 0.00 0.00 86 1016.5
20260507142248 60 176 0.0 0.0 0.00 0.00 0.00 90 1016.6
20260507141744 59 176 0.0 0.0 0.00 0.00 0.00 92 1016.3
20260507141242 58 176 0.0 0.0 0.00 0.00 0.00 94 1016.6
20260507140738 57 176 0.0 0.0 0.00 0.00 0.00 96 1016.2
20260507140236 57 176 0.0 0.0 0.00 0.00 0.00 96 1016.2
20260507135732 56 176 0.0 0.0 0.00 0.00 0.00 96 1016.4
20260507135230 55 175 0.0 0.0 0.00 0.00 0.00 95 1016.2
20260507134726 55 175 0.0 0.0 0.00 0.00 0.00 95 1016.1
20260507134222 55 175 0.0 0.0 0.00 0.00 0.00 95 1016.1
20260507133718 54 175 0.0 0.0 0.00 0.00 0.00 95 1016.0
20260507133215 54 175 0.0 0.0 0.00 0.00 0.00 95 1015.9
20260507132713 54 175 0.0 0.0 0.00 0.00 0.00 94 1016.1
20260507132209 54 175 0.0 0.0 0.00 0.00 0.00 94 1016.0
20260507131706 54 175 0.0 0.0 0.00 0.00 0.00 94 1015.9
20260507131204 54 175 0.0 0.0 0.00 0.00 0.00 94 1015.9
20260507130700 54 175 0.0 0.0 0.00 0.00 0.00 94 1015.8
20260507130158 54 175 0.0 0.0 0.00 0.00 0.00 94 1015.7
20260507125656 54 175 0.0 0.0 0.00 0.00 0.00 94 1015.7
20260507125154 54 175 0.0 0.0 0.00 0.00 0.00 94 1015.8
20260507124649 54 175 0.0 0.0 0.00 0.00 0.00 94 1015.6
20260507124147 54 175 0.0 0.0 0.00 0.00 0.00 93 1015.7
20260507123646 54 175 0.0 0.0 0.00 0.00 0.00 93 1015.9
20260507123142 54 175 0.0 0.0 0.00 0.00 0.00 93 1015.9
20260507122637 54 175 0.0 0.0 0.00 0.00 0.00 93 1015.4
20260507122133 54 175 0.0 0.0 0.00 0.00 0.00 93 1015.7
20260507121629 54 175 0.0 0.0 0.00 0.00 0.00 93 1015.7
20260507121126 54 175 0.0 0.0 0.00 0.00 0.00 93 1015.8
20260507120622 54 175 0.0 0.0 0.00 0.00 0.00 93 1015.8
20260507120119 55 175 0.0 0.0 0.00 0.00 0.00 93 1015.9
20260507115615 55 175 0.0 0.0 0.00 0.00 0.00 93 1015.9
20260507115111 55 175 0.0 0.0 0.00 0.00 0.00 94 1015.9
20260507114607 55 175 0.0 0.0 0.00 0.00 0.00 93 1015.8
20260507114104 55 175 0.0 0.0 0.00 0.00 0.00 93 1015.9
20260507113601 55 175 0.0 0.0 0.00 0.00 0.00 93 1015.9
20260507113059 55 175 0.0 0.0 0.00 0.00 0.00 93 1015.7
20260507112556 55 175 0.0 0.0 0.00 0.00 0.00 93 1015.8
20260507112053 55 175 0.0 0.0 0.00 0.00 0.00 92 1016.0
20260507111550 55 175 0.0 0.0 0.00 0.00 0.00 92 1016.0
20260507111047 55 175 0.0 0.0 0.00 0.00 0.00 92 1016.0
20260507110543 55 175 0.0 0.0 0.00 0.00 0.00 92 1016.0
20260507110039 55 175 0.0 0.0 0.00 0.00 0.00 92 1015.9
20260507105537 55 175 0.0 0.0 0.00 0.00 0.00 92 1016.1
20260507105032 55 175 0.0 0.0 0.00 0.00 0.00 92 1015.9
20260507104530 55 175 0.0 0.0 0.00 0.00 0.00 92 1016.1
20260507104026 56 175 0.0 0.0 0.00 0.00 0.00 92 1016.3
20260507103523 56 175 0.0 0.0 0.00 0.00 0.00 91 1016.2
20260507103019 56 175 0.0 0.0 0.00 0.00 0.00 91 1016.0
20260507102516 56 175 0.0 0.0 0.00 0.00 0.00 91 1016.1
20260507102012 56 175 0.0 0.0 0.00 0.00 0.00 90 1016.3
20260507101507 56 175 0.0 0.0 0.00 0.00 0.00 90 1016.3
20260507101004 56 175 0.0 0.0 0.00 0.00 0.00 90 1016.2
20260507100501 56 175 0.0 0.0 0.00 0.00 0.00 90 1016.1
20260507095959 56 175 0.0 0.0 0.00 0.00 0.00 90 1016.3
20260507095457 56 175 0.0 0.0 0.00 0.00 0.00 90 1016.3
20260507094954 56 175 0.0 0.0 0.00 0.00 0.00 90 1016.5
20260507094450 56 175 0.0 0.0 0.00 0.00 0.00 90 1016.4
20260507093947 56 175 0.0 0.0 0.00 0.00 0.00 90 1016.5
20260507093444 56 175 0.0 0.0 0.00 0.00 0.00 90 1016.5
20260507092943 57 175 0.0 0.0 0.00 0.00 0.00 90 1016.5
20260507092438 57 175 0.0 0.0 0.00 0.00 0.00 90 1016.5
20260507091936 57 175 0.0 0.0 0.00 0.00 0.00 90 1016.4
20260507091432 57 175 0.0 0.0 0.00 0.00 0.00 90 1016.7
20260507090928 57 175 0.0 0.0 0.00 0.00 0.00 89 1016.7
20260507090424 57 175 0.0 0.0 0.00 0.00 0.00 89 1016.7
20260507085921 57 175 0.0 0.0 0.00 0.00 0.00 90 1016.7
20260507085418 57 175 0.0 0.0 0.00 0.00 0.00 89 1016.7
20260507084915 57 175 0.0 0.0 0.00 0.00 0.00 90 1016.8
20260507084412 57 175 0.0 0.0 0.00 0.00 0.00 90 1017.0
20260507083909 57 175 0.0 0.0 0.00 0.00 0.00 90 1016.9
20260507083405 57 175 0.0 0.0 0.00 0.00 0.00 89 1017.0
20260507082902 57 175 0.0 0.0 0.00 0.00 0.00 89 1016.8
20260507082357 57 175 0.0 0.0 0.00 0.00 0.00 89 1017.1
20260507081855 57 175 0.0 0.0 0.00 0.00 0.00 88 1016.9
20260507081351 58 175 0.0 0.0 0.00 0.00 0.00 88 1017.1
20260507080848 58 175 0.0 0.0 0.00 0.00 0.00 88 1017.2
20260507080344 58 175 0.0 0.0 0.00 0.00 0.00 88 1017.1
20260507075839 58 175 0.0 0.0 0.00 0.00 0.00 87 1017.2
20260507075335 58 175 0.0 0.0 0.00 0.00 0.00 87 1017.1
20260507074832 58 175 0.0 0.0 0.00 0.00 0.00 87 1017.3
20260507074330 58 175 0.0 0.0 0.00 0.00 0.00 87 1017.3
20260507073827 58 175 0.0 0.0 0.00 0.00 0.00 87 1017.3
20260507073323 59 175 0.0 0.0 0.00 0.00 0.00 87 1017.2
20260507072821 59 175 0.0 0.0 0.00 0.00 0.00 87 1017.4
20260507072318 59 175 0.0 0.0 0.00 0.00 0.00 86 1017.4
20260507071815 59 175 0.0 0.0 0.00 0.00 0.00 86 1017.3
20260507071312 59 175 0.0 0.0 0.00 0.00 0.00 85 1017.2
20260507070808 59 175 0.0 0.0 0.00 0.00 0.00 85 1017.3
20260507070306 59 175 0.0 0.0 0.00 0.00 0.00 84 1017.5
20260507065802 59 175 0.0 0.0 0.00 0.00 0.00 84 1017.3
20260507065259 59 175 0.0 0.0 0.00 0.00 0.00 84 1017.4
20260507064756 59 175 0.0 0.0 0.00 0.00 0.00 83 1017.2
20260507064255 60 175 0.0 0.0 0.00 0.00 0.00 83 1017.4
20260507063752 60 175 0.0 0.0 0.00 0.00 0.00 83 1017.1
20260507063249 60 175 0.0 0.0 0.00 0.00 0.00 82 1017.4
20260507062746 60 175 0.0 0.0 0.00 0.00 0.00 82 1017.5
20260507062243 60 175 0.0 0.0 0.00 0.00 0.00 81 1017.3
20260507061741 60 175 0.0 0.0 0.00 0.00 0.00 80 1017.4
20260507061238 60 175 0.0 0.0 0.00 0.00 0.00 80 1017.3
20260507060737 60 175 0.0 0.0 0.00 0.00 0.00 80 1017.3
20260507060233 60 175 0.0 0.0 0.00 0.00 0.00 79 1017.5
20260507055729 61 175 0.0 0.0 0.00 0.00 0.00 79 1017.6
20260507055225 61 175 0.0 0.0 0.00 0.00 0.00 79 1017.5
20260507054721 61 175 0.0 0.0 0.00 0.00 0.00 79 1017.5
20260507054218 60 173 0.0 0.0 0.00 0.00 0.00 80 1017.6
20260507053716 61 173 0.0 0.0 0.00 0.00 0.00 80 1017.4
20260507053213 61 173 0.0 0.0 0.00 0.00 0.00 81 1017.5
20260507052712 61 173 0.0 0.0 0.00 0.00 0.00 80 1017.5
20260507052207 61 173 0.0 0.0 0.00 0.00 0.00 80 1017.5
20260507051706 61 173 0.0 0.0 0.00 0.00 0.00 80 1017.3
20260507051202 61 173 0.0 0.0 0.00 0.00 0.00 79 1017.4
20260507050659 61 173 0.0 0.0 0.00 0.00 0.00 78 1017.5
20260507050156 61 173 0.0 0.0 0.00 0.00 0.00 78 1017.4
20260507045652 61 173 0.0 0.0 0.00 0.00 0.00 77 1017.4
20260507045149 61 173 0.0 0.0 0.00 0.00 0.00 77 1017.4
20260507044646 61 173 0.0 0.0 0.00 0.00 0.00 76 1017.3
20260507044143 61 173 0.0 0.0 0.00 0.00 0.00 76 1017.4
20260507043639 62 173 0.0 0.0 0.00 0.00 0.00 75 1017.3
20260507043136 62 173 0.0 0.0 0.00 0.00 0.00 75 1017.2
20260507042633 62 174 0.0 0.0 0.00 0.00 0.00 74 1017.1
20260507042127 62 175 0.0 0.0 0.00 0.00 0.00 74 1017.1
20260507041625 62 175 0.0 0.0 0.00 0.00 0.00 73 1017.3
20260507041121 62 175 0.0 0.0 0.00 0.00 0.00 73 1017.3
20260507040618 63 175 0.0 0.0 0.00 0.00 0.00 72 1017.2
20260507040115 63 175 0.0 0.0 0.00 0.00 0.00 72 1017.1
20260507035611 63 210 1.0 1.0 0.00 0.00 0.00 71 1016.9
20260507035107 63 216 0.0 0.0 0.00 0.00 0.00 71 1017.0
20260507034604 64 216 0.0 0.0 0.00 0.00 0.00 70 1017.2
20260507034102 64 216 1.0 1.0 0.00 0.00 0.00 69 1016.9
20260507033600 64 216 0.0 0.0 0.00 0.00 0.00 69 1016.9
20260507033056 64 216 0.0 0.0 0.00 0.00 0.00 67 1017.0
20260507032554 64 216 0.0 0.0 0.00 0.00 0.00 67 1016.8
20260507032050 64 216 0.0 0.0 0.00 0.00 0.00 65 1016.7
20260507031546 64 217 0.0 0.0 0.00 0.00 0.00 65 1016.5
20260507031043 65 217 0.0 0.0 0.00 0.00 0.00 66 1016.7
20260507030540 65 217 0.0 0.0 0.00 0.00 0.00 63 1016.6
20260507030038 65 217 1.0 1.0 0.00 0.00 0.00 62 1016.6
20260507025535 65 218 0.0 0.0 0.00 0.00 0.00 62 1016.4
20260507025032 65 219 0.0 0.0 0.00 0.00 0.00 62 1016.3
20260507024530 66 219 1.0 1.0 0.00 0.00 0.00 62 1016.3
20260507024026 66 201 1.0 1.0 0.00 0.00 0.00 63 1016.1
20260507023522 66 201 1.0 1.0 0.00 0.00 0.00 63 1016.2
20260507023020 66 187 0.0 0.0 0.00 0.00 0.00 63 1016.3
20260507022517 67 189 1.0 1.0 0.00 0.00 0.00 62 1016.3
20260507022012 67 188 1.0 0.0 0.00 0.00 0.00 61 1016.1
20260507021508 67 218 0.0 0.0 0.00 0.00 0.00 61 1016.0
20260507021005 67 221 0.0 0.0 0.00 0.00 0.00 60 1016.2
20260507020502 68 209 1.0 1.0 0.00 0.00 0.00 59 1016.1
20260507015959 68 209 1.0 1.0 0.00 0.00 0.00 58 1016.0
20260507015458 68 225 0.0 0.0 0.00 0.00 0.00 57 1015.8
20260507014954 69 219 1.0 1.0 0.00 0.00 0.00 55 1015.9
20260507014451 69 194 0.0 0.0 0.00 0.00 0.00 52 1015.8
20260507013946 69 174 1.0 1.0 0.00 0.00 0.00 52 1015.8
20260507013443 70 174 1.0 1.0 0.00 0.00 0.00 53 1015.7
20260507012941 70 163 1.0 1.0 0.00 0.00 0.00 50 1015.8
20260507012437 71 159 1.0 1.0 0.00 0.00 0.00 49 1015.8
20260507011934 71 182 2.0 2.0 0.00 0.00 0.00 49 1015.5
20260507011432 71 197 1.0 1.0 0.00 0.00 0.00 51 1015.5
20260507010931 71 196 1.0 1.0 0.00 0.00 0.00 52 1015.6
20260507010427 71 164 0.0 1.0 0.00 0.00 0.00 52 1015.6
20260507005924 72 170 1.0 1.0 0.00 0.00 0.00 51 1015.7
20260507005421 72 246 0.0 0.0 0.00 0.00 0.00 52 1015.5
20260507004917 72 255 1.0 1.0 0.00 0.00 0.00 50 1015.5
20260507004414 72 181 0.0 0.0 0.00 0.00 0.00 51 1015.6
20260507003912 73 219 1.0 1.0 0.00 0.00 0.00 50 1015.7
20260507003407 73 198 2.0 2.0 0.00 0.00 0.00 48 1015.7
20260507002903 74 265 1.0 1.0 0.00 0.00 0.00 48 1015.6
20260507002358 74 168 0.0 0.0 0.00 0.00 0.00 47 1015.5
20260507001856 74 175 0.0 0.0 0.00 0.00 0.00 47 1015.6
20260507001353 75 185 0.0 0.0 0.00 0.00 0.00 47 1015.3
20260507000850 75 172 0.0 0.0 0.00 0.00 0.00 47 1015.5
20260507000345 76 193 1.0 1.0 0.00 0.00 0.00 45 1015.6
20260506235841 76 208 0.0 0.0 0.00 0.00 0.00 45 1015.4
20260506235338 76 212 1.0 1.0 0.00 0.00 0.00 45 1015.5
20260506234834 76 174 0.0 1.0 0.00 0.00 0.00 45 1015.5
20260506234332 77 175 0.0 0.0 0.00 0.00 0.00 45 1015.5
20260506233830 77 173 1.0 1.0 0.00 0.00 0.00 44 1015.4
20260506233325 77 163 0.0 1.0 0.00 0.00 0.00 44 1015.4
20260506232823 77 187 0.0 1.0 0.00 0.00 0.00 44 1015.5
20260506232318 78 181 2.0 2.0 0.00 0.00 0.00 42 1015.3
20260506231815 79 139 0.0 1.0 0.00 0.00 0.00 42 1015.5